Location: Aranbee
(34.0885°N, 118.2342°W)
Time: 22:31:39
(UTC+00:00)

Explorer 7 - Pass Details

Date: 04 August 2021
Orbit: 484 x 676 km, 50.3° (Epoch: 15 September)

Event Time Altitude Azimuth Distance (km) Brightness Sun altitude
Exits shadow 11:49:47 18° 285° (WNW) 1,254 8.3 -15.0°
Maximum altitude 11:51:39 26° 329° (NNW) 984 8.1 -14.7°
Drops below altitude 10° 11:54:55 10° 28° (NNE) 1,698 10.3 -14.1°
Sets 11:57:24 0° 41° (NE) 2,608 11.8 -13.6°
